[[{"header":{"parameterUnit":"m.s-1","parameterCategory":1,"la1":30.2991,"la2":30.254,"lo1":-89.0895,"lo2":-89.0444,"dy":0.0017,"dx":0.0017,"nx":28,"ny":28,"refTime":"2025-12-19T03:00:00:Z","depth":0,"parameterNumber":2,"parameterNumberName":"U-component_of_WINDS"},"data":[0,0,0,0,0,0,0,0,0,0,0,0,0,0,0,0,0,0,0,0,0,0,0,0,0,0,0,0,0,0,0,0,0,0,0,0,0,0,0,0,0,0,0,0,0,0,0,0,0,0,0,0,0,0,0,0,0,0,-0.1798,-0.1797,0,-0.1711,-0.171,-0.1709,-0.1661,-0.1661,-0.166,-0.166,-0.1571,-0.1569,-0.1567,0,0,0,0,0,0,0,0,0,0,0,0,0,-0.1926,-0.1924,-0.1798,-0.1797,-0.1796,-0.1711,-0.171,-0.1708,-0.1661,-0.1661,-0.166,-0.166,-0.1572,-0.157,-0.1567,0,0,0,0,0,0,0,0,0,0,0,0,0,-0.1858,-0.1923,-0.1799,-0.1762,-0.1758,-0.1711,-0.171,-0.1708,-0.1661,-0.1661,-0.166,-0.166,-0.1573,-0.157,-0.1566,-0.1549,0,0,-0.1556,-0.1555,0,0,0,0,0,0,0,0,-0.1862,-0.1853,-0.1769,-0.1765,-0.176,-0.1696,-0.1722,-0.1655,-0.1661,-0.1698,-0.166,-0.166,-0.1613,-0.1607,-0.1591,-0.1545,-0.1541,-0.1556,-0.1554,-0.1552,-0.1551,0,0,0,0,0,0,0,-0.1867,-0.1857,-0.1764,-0.1767,-0.1762,-0.1751,-0.1741,-0.1709,-0.1658,-0.1694,-0.1691,-0.1681,-0.1611,-0.1594,-0.1588,-0.154,-0.1556,-0.1553,-0.1551,-0.155,-0.1477,-0.1477,0,0,0,0,0,0,-0.1877,-0.1861,-0.1766,-0.1761,-0.1811,-0.1748,-0.1737,-0.1717,-0.1658,-0.1649,-0.1681,-0.1679,-0.16,-0.1592,-0.1585,-0.1561,-0.1552,-0.1549,-0.1547,-0.1477,-0.1477,-0.1477,0,0,0,0,0,0,-0.188,-0.1869,-0.177,-0.181,-0.1796,-0.1746,-0.1724,-0.1715,-0.1698,-0.1648,-0.1639,-0.1673,-0.1599,-0.159,-0.1559,-0.1557,-0.1548,-0.1545,-0.1477,-0.1477,-0.1477,-0.1514,0,0,0,0,0,0,-0.1884,-0.187,-0.1863,-0.181,-0.1795,-0.1745,-0.1724,-0.1714,-0.1693,-0.1689,-0.1638,-0.1629,-0.1598,-0.1564,-0.1555,-0.1553,-0.1542,-0.1477,-0.1477,-0.1477,-0.1513,-0.1515,-0.1518,0,0,0,0,0,-0.1888,-0.1877,-0.1863,-0.1852,-0.1784,-0.1745,-0.1736,-0.1701,-0.1693,-0.1685,-0.1653,-0.1631,-0.1559,-0.1561,-0.1551,-0.1547,-0.1477,-0.1477,-0.1477,-0.1512,-0.1515,-0.1518,0,0,0,0,0,0,-0.1931,-0.1869,-0.1853,-0.1824,-0.179,-0.1737,-0.1726,-0.1705,-0.1673,-0.1671,-0.1629,-0.1617,-0.1591,-0.1566,-0.1569,-0.1528,-0.1516,-0.1514,-0.1545,-0.1548,-0.1551,-0.1557,-0.1539,0,0,0,0,0,-0.1937,-0.191,-0.1858,-0.1837,-0.1821,-0.1777,-0.1758,-0.1734,-0.1697,-0.1683,-0.1648,-0.1614,-0.1583,-0.1564,-0.1534,-0.1509,-0.1497,-0.1501,-0.1504,-0.1506,-0.1505,-0.1491,-0.1492,-0.1478,-0.1478,-0.1478,0,0,-0.1949,-0.1912,-0.1898,-0.1845,-0.1816,-0.1789,-0.1765,-0.1738,-0.1718,-0.1679,-0.1647,-0.1621,-0.158,-0.1552,-0.1538,-0.1531,-0.1507,-0.1507,-0.1509,-0.1506,-0.1491,-0.1493,-0.1494,-0.1478,-0.1478,-0.1478,0,0,-0.1958,-0.1927,-0.1906,-0.1878,-0.1834,-0.1805,-0.18,-0.175,-0.1731,-0.1699,-0.1669,-0.1645,-0.1594,-0.1566,-0.1545,-0.1544,-0.1523,-0.1535,-0.1548,-0.1535,-0.1536,-0.1537,-0.1537,-0.1537,-0.1534,-0.1534,-0.1534,0,-0.1979,-0.1937,-0.1899,-0.1873,-0.1851,-0.1815,-0.1794,-0.1768,-0.1717,-0.1703,-0.1695,-0.163,-0.16,-0.1565,-0.1565,-0.1549,-0.1543,-0.1541,-0.1539,-0.1539,-0.1539,-0.1539,-0.1539,-0.1536,-0.1536,-0.1536,-0.1535,0,-0.1965,-0.1936,-0.1925,-0.1877,-0.1853,-0.1831,-0.179,-0.1771,-0.1748,-0.172,-0.1689,-0.1651,-0.1612,-0.1602,-0.158,-0.1565,-0.1561,-0.1547,-0.1533,-0.1543,-0.1542,-0.1542,-0.1539,-0.1538,-0.1537,-0.1537,0,0,-0.1997,-0.1928,-0.1925,-0.1903,-0.1852,-0.1829,-0.1805,-0.1767,-0.1752,-0.1718,-0.1697,-0.1655,-0.1641,-0.1617,-0.1592,-0.158,-0.1582,-0.1567,-0.1565,-0.1571,-0.1564,-0.1575,-0.1576,-0.1568,-0.1568,-0.1568,-0.1567,0,-0.1999,-0.1953,-0.1919,-0.1887,-0.1861,-0.1826,-0.1805,-0.1772,-0.1745,-0.1719,-0.169,-0.166,-0.1644,-0.163,-0.1617,-0.1585,-0.158,-0.1584,-0.1549,-0.1548,-0.156,-0.1575,-0.1587,-0.1588,-0.1567,-0.1566,-0.1566,0,-0.1995,-0.1962,-0.1927,-0.188,-0.1867,-0.1849,-0.1812,-0.1787,-0.175,-0.1731,-0.1705,-0.1679,-0.1652,-0.1642,-0.1605,-0.1609,-0.1592,-0.1574,-0.1573,-0.1569,-0.1558,-0.1571,-0.1588,-0.1588,-0.1565,-0.1565,-0.1565,0,-0.2023,-0.197,-0.1942,-0.1924,-0.1868,-0.1856,-0.1832,-0.1794,-0.1774,-0.1741,-0.1728,-0.1693,-0.1674,-0.1647,-0.1613,-0.1608,-0.158,-0.1566,-0.1564,-0.1565,-0.156,-0.1561,-0.1574,-0.1549,-0.1549,-0.1549,-0.1549,0,-0.2028,-0.2008,-0.1954,-0.1937,-0.1914,-0.1875,-0.1854,-0.1827,-0.1793,-0.1771,-0.1739,-0.1719,-0.1674,-0.1649,-0.1621,-0.1596,-0.1587,-0.1572,-0.1565,-0.1575,-0.1577,-0.1563,-0.1562,-0.1549,-0.1549,-0.1549,-0.1549,0,-0.2056,-0.2018,-0.1986,-0.1936,-0.1923,-0.1908,-0.1865,-0.1848,-0.1819,-0.1792,-0.1783,-0.1738,-0.1707,-0.167,-0.1626,-0.1608,-0.1584,-0.1574,-0.1597,-0.1593,-0.1594,-0.1594,-0.1599,-0.1598,-0.1574,-0.1574,-0.1574,0,-0.2062,-0.2046,-0.1994,-0.1976,-0.1953,-0.1926,-0.1905,-0.1866,-0.1845,-0.1801,-0.1789,-0.1755,-0.1726,-0.1678,-0.1642,-0.1608,-0.1597,-0.1601,-0.1592,-0.1602,-0.1597,-0.1599,-0.1597,-0.1604,-0.1604,-0.1605,-0.1605,0,-0.2077,-0.2059,-0.203,-0.1994,-0.197,-0.194,-0.1909,-0.1897,-0.1852,-0.1831,-0.1798,-0.1775,-0.1731,-0.1698,-0.166,-0.1636,-0.1613,-0.1608,-0.1606,-0.1616,-0.163,-0.1623,-0.1604,-0.1608,-0.1608,-0.1608,-0.1607,-0.1607,-0.2094,-0.2078,-0.2039,-0.2008,-0.198,-0.1952,-0.1933,-0.1903,-0.1875,-0.1835,-0.1814,-0.1782,-0.1745,-0.1692,-0.1669,-0.1644,-0.1636,-0.1632,-0.1632,-0.1632,-0.1635,-0.1634,-0.1636,-0.1636,-0.1636,-0.1636,-0.1636,0,-0.2107,-0.2081,-0.2052,-0.201,-0.1985,-0.1966,-0.193,-0.1911,-0.1884,-0.1851,-0.1823,-0.1786,-0.1754,-0.1715,-0.1681,-0.1668,-0.1657,-0.166,-0.1661,-0.1656,-0.1644,-0.1649,-0.167,-0.167,-0.167,-0.167,-0.167,-0.167,-0.2112,-0.2084,-0.2062,-0.2021,-0.1995,-0.1963,-0.1945,-0.1919,-0.1892,-0.1852,-0.1825,-0.1801,-0.1766,-0.1729,-0.1698,-0.1688,-0.1677,-0.1684,-0.1671,-0.166,-0.1657,-0.1654,-0.1659,-0.1682,-0.1682,-0.1685,-0.1685,-0.1685]},{"header":{"parameterUnit":"m.s-1","parameterCategory":1,"la1":30.2991,"la2":30.254,"lo1":-89.0895,"lo2":-89.0444,"dy":0.0017,"dx":0.0017,"nx":28,"ny":28,"refTime":"2025-12-19T03:00:00:Z","depth":0,"parameterNumber":3,"parameterNumberName":"V-component_of_WINDS"},"data":[0,0,0,0,0,0,0,0,0,0,0,0,0,0,0,0,0,0,0,0,0,0,0,0,0,0,0,0,0,0,0,0,0,0,0,0,0,0,0,0,0,0,0,0,0,0,0,0,0,0,0,0,0,0,0,0,0,0,2.4165,2.4165,0,2.4248,2.4249,2.425,2.4278,2.4278,2.4277,2.4277,2.4362,2.4364,2.4367,0,0,0,0,0,0,0,0,0,0,0,0,0,2.4027,2.4029,2.4164,2.4166,2.4167,2.4248,2.4249,2.4251,2.4278,2.4278,2.4277,2.4277,2.4361,2.4364,2.4367,0,0,0,0,0,0,0,0,0,0,0,0,0,2.4096,2.403,2.4164,2.419,2.4193,2.4248,2.4249,2.4251,2.4278,2.4278,2.4277,2.4277,2.436,2.4364,2.4367,2.4402,0,0,2.4379,2.4381,0,0,0,0,0,0,0,0,2.4092,2.4101,2.4185,2.4189,2.4192,2.4252,2.4232,2.4301,2.4278,2.4246,2.4277,2.4276,2.4326,2.4332,2.4349,2.4406,2.4409,2.438,2.4382,2.4384,2.4385,0,0,0,0,0,0,0,2.4087,2.4098,2.4198,2.4187,2.4191,2.4197,2.4207,2.4245,2.4288,2.4249,2.4251,2.4261,2.4327,2.4345,2.4351,2.4411,2.4379,2.4383,2.4385,2.4387,2.45,2.4501,0,0,0,0,0,0,2.4079,2.4094,2.4195,2.42,2.414,2.42,2.4211,2.4234,2.4287,2.4295,2.4261,2.4262,2.4339,2.4347,2.4354,2.4399,2.4384,2.4387,2.4389,2.45,2.45,2.4501,0,0,0,0,0,0,2.4075,2.4087,2.4192,2.4148,2.4161,2.4203,2.4229,2.4235,2.4253,2.4297,2.4304,2.4272,2.4339,2.4349,2.439,2.4402,2.4389,2.4392,2.4499,2.45,2.4501,2.4487,0,0,0,0,0,0,2.4071,2.4086,2.41,2.4148,2.4164,2.4226,2.4229,2.4237,2.426,2.4262,2.4309,2.4316,2.4339,2.4384,2.4394,2.4407,2.4395,2.4498,2.4499,2.4501,2.4487,2.4488,2.4488,0,0,0,0,0,2.4066,2.4092,2.41,2.4112,2.4182,2.4227,2.4236,2.4263,2.4261,2.4275,2.4303,2.4314,2.4399,2.4388,2.4399,2.4414,2.4497,2.4499,2.45,2.4486,2.4487,2.4488,0,0,0,0,0,0,2.4044,2.4099,2.4109,2.4151,2.4184,2.4231,2.425,2.4263,2.4297,2.4297,2.4328,2.4338,2.4377,2.44,2.4386,2.445,2.4449,2.4453,2.4434,2.4436,2.4436,2.443,2.4399,0,0,0,0,0,2.4044,2.4076,2.4122,2.4155,2.4171,2.4208,2.4228,2.4246,2.4282,2.4296,2.4326,2.436,2.4394,2.4416,2.445,2.449,2.4501,2.4506,2.4506,2.4507,2.451,2.4533,2.4536,2.4506,2.4506,2.4506,0,0,2.4044,2.4078,2.4097,2.4152,2.4179,2.4212,2.4219,2.4253,2.4278,2.4301,2.4342,2.4365,2.4405,2.4446,2.4465,2.4466,2.4521,2.4509,2.4509,2.4512,2.4535,2.4538,2.4541,2.4507,2.4507,2.4507,0,0,2.4061,2.409,2.4121,2.4149,2.4191,2.4215,2.4223,2.4268,2.4285,2.4327,2.4345,2.4374,2.4432,2.446,2.4482,2.451,2.4522,2.452,2.4524,2.4547,2.4549,2.4551,2.4562,2.4565,2.4523,2.4523,2.4523,0,2.4056,2.4106,2.4135,2.4168,2.4192,2.4215,2.4246,2.4272,2.4322,2.4338,2.4338,2.4412,2.444,2.4488,2.4495,2.4512,2.4521,2.4515,2.4546,2.4549,2.4552,2.4562,2.4566,2.4522,2.4522,2.4522,2.4522,0,2.4098,2.4132,2.4152,2.4202,2.4227,2.4259,2.4293,2.4315,2.4331,2.4355,2.4397,2.4432,2.4473,2.4486,2.4501,2.4536,2.4535,2.454,2.4539,2.4553,2.4564,2.4568,2.4522,2.4522,2.4522,2.4522,0,0,2.4103,2.4168,2.4175,2.4198,2.4247,2.4274,2.4307,2.4348,2.4367,2.4401,2.443,2.4479,2.4484,2.4509,2.4527,2.4547,2.4567,2.455,2.4551,2.4552,2.4609,2.4605,2.4609,2.4576,2.4576,2.4577,2.4606,0,2.4127,2.4188,2.4214,2.4263,2.4295,2.4318,2.4346,2.4379,2.4402,2.4433,2.4459,2.4493,2.4497,2.4512,2.4533,2.456,2.4579,2.4559,2.4603,2.4604,2.4592,2.4614,2.461,2.4635,2.461,2.461,2.4611,0,2.4162,2.4198,2.425,2.4295,2.4309,2.4335,2.4375,2.4404,2.4442,2.4457,2.4485,2.4503,2.4538,2.4535,2.4585,2.457,2.459,2.4606,2.4608,2.4613,2.4608,2.462,2.4644,2.4648,2.4617,2.4617,2.4616,0,2.4161,2.4222,2.4261,2.428,2.4333,2.4351,2.4374,2.4411,2.4434,2.4469,2.4485,2.4523,2.4544,2.4573,2.4601,2.4596,2.4648,2.4647,2.4662,2.4661,2.4672,2.4671,2.4699,2.4684,2.4684,2.4684,2.4684,0,2.4185,2.4216,2.4261,2.4285,2.432,2.4351,2.4385,2.4409,2.4442,2.4471,2.4493,2.4519,2.4555,2.4586,2.4608,2.4646,2.4655,2.4668,2.4674,2.4667,2.4665,2.468,2.4679,2.4685,2.4685,2.4685,2.4684,0,2.419,2.4221,2.4266,2.4313,2.4326,2.4349,2.439,2.4414,2.4438,2.4475,2.4485,2.4524,2.4562,2.4592,2.4641,2.4656,2.4696,2.4702,2.4684,2.4687,2.47,2.4699,2.4739,2.4746,2.4726,2.4726,2.4726,0,2.4203,2.4228,2.4278,2.4299,2.4322,2.4356,2.438,2.4411,2.4435,2.448,2.4499,2.4538,2.4571,2.4631,2.4663,2.4701,2.4708,2.472,2.4714,2.4706,2.4709,2.4707,2.471,2.4721,2.4721,2.4721,2.4721,0,2.4223,2.4238,2.4272,2.4312,2.434,2.4373,2.4406,2.4422,2.4459,2.4485,2.4524,2.455,2.4601,2.464,2.4681,2.4705,2.4719,2.4722,2.4728,2.4721,2.4709,2.4716,2.4685,2.4721,2.4721,2.4721,2.4721,2.4721,2.4233,2.4256,2.4295,2.4333,2.4361,2.4391,2.4417,2.4445,2.4478,2.4522,2.4538,2.4579,2.4616,2.4673,2.4697,2.4729,2.4731,2.4739,2.4741,2.4742,2.4742,2.4704,2.4737,2.4737,2.4737,2.4737,2.4737,0,2.4254,2.4281,2.4315,2.4361,2.4391,2.4402,2.4439,2.4463,2.4499,2.4532,2.4565,2.461,2.4648,2.4684,2.4724,2.4743,2.475,2.4752,2.4751,2.4756,2.4738,2.4729,2.4745,2.4745,2.4745,2.4745,2.4745,2.4745,2.4269,2.4309,2.4328,2.4382,2.4408,2.4448,2.4469,2.4497,2.4524,2.4574,2.4606,2.4629,2.4664,2.4707,2.4742,2.4752,2.4765,2.4766,2.4777,2.4759,2.4757,2.4756,2.4748,2.4768,2.4768,2.4793,2.4793,2.4793]}]]